Total_Precipitation_Accumulation
0.03 0.04 0.05 0.10 0.28 0.56 0.70 0.54 0.48 0.47 0.50 0.43 0.43 0.43 0.53 0.69 0.99 1.78 1.14 0.67 0.42 0.30 0.37 0.37 0.52 0.50 0.48 0.49 0.53 0.61 0.74 0.77 0.86 0.88 0.85 0.91 1.00 0.96 0.91 0.99 1.12 1.37 1.61 1.76 1.90 2.07 2.38 2.58 2.54
0.04 0.05 0.09 0.17 0.43 0.65 0.71 0.52 0.53 0.48 0.45 0.44 0.43 0.43 0.45 0.57 0.54 0.67 0.67 0.71 0.62 0.51 0.47 0.41 0.55 0.56 0.49 0.49 0.57 0.66 0.79 0.84 0.97 0.96 0.83 0.89 0.95 0.97 0.94 0.99 1.11 1.40 1.71 1.93 1.95 2.00 2.21 2.24 2.28
0.04 0.06 0.12 0.29 0.50 0.56 0.70 0.56 0.57 0.54 0.43 0.43 0.49 0.53 0.60 0.76 0.80 0.90 0.91 0.84 0.81 0.70 0.58 0.53 0.61 0.65 0.62 0.61 0.64 0.71 0.83 0.90 0.99 0.90 0.92 0.99 1.03 1.04 1.01 0.99 1.07 1.31 1.76 2.01 1.94 1.91 1.90 1.97 2.10
0.05 0.08 0.18 0.38 0.47 0.39 0.54 0.60 0.56 0.60 0.50 0.47 0.52 0.69 0.74 0.81 0.89 0.96 0.82 0.78 0.73 0.65 0.57 0.52 0.58 0.61 0.65 0.62 0.62 0.75 0.81 0.90 0.99 1.02 1.04 1.10 1.23 1.25 1.14 1.13 1.24 1.39 1.73 1.99 1.94 1.88 1.80 1.81 1.96
0.05 0.11 0.28 0.42 0.39 0.30 0.40 0.51 0.64 0.70 0.64 0.55 0.61 0.91 1.20 1.19 1.10 1.00 0.80 0.80 0.81 0.66 0.60 0.52 0.54 0.60 0.63 0.67 0.69 0.86 0.93 1.01 1.14 1.18 1.16 1.23 1.33 1.35 1.29 1.32 1.42 1.58 1.71 1.89 1.87 1.79 1.73 1.66 1.80
0.05 0.13 0.31 0.41 0.37 0.30 0.37 0.48 0.57 0.65 0.59 0.53 0.68 1.13 1.75 1.60 1.27 1.33 1.24 0.95 0.94 0.82 0.73 0.61 0.57 0.70 0.81 0.84 0.84 0.96 0.98 1.09 1.17 1.27 1.27 1.25 1.25 1.22 1.23 1.34 1.45 1.66 1.82 1.80 1.62 1.56 1.56 1.60 1.68
0.06 0.15 0.26 0.36 0.45 0.41 0.43 0.49 0.59 0.60 0.62 0.66 0.93 1.41 1.89 1.78 1.47 1.49 1.43 1.11 1.04 0.90 0.74 0.68 0.63 0.80 1.04 1.08 1.00 0.99 0.99 1.10 1.23 1.36 1.40 1.30 1.20 1.14 1.18 1.24 1.34 1.54 1.61 1.50 1.42 1.42 1.39 1.42 1.55
0.05 0.10 0.19 0.27 0.49 0.50 0.46 0.53 0.56 0.52 0.62 0.80 1.07 1.43 1.80 1.74 1.46 1.31 1.27 1.24 1.20 1.14 0.98 0.95 0.91 0.97 1.06 1.09 1.13 1.09 1.08 1.21 1.32 1.38 1.42 1.38 1.31 1.25 1.28 1.22 1.34 1.45 1.55 1.55 1.54 1.49 1.41 1.38 1.43
0.06 0.12 0.19 0.28 0.47 0.49 0.46 0.45 0.46 0.47 0.54 0.82 0.95 0.99 1.33 1.44 1.36 1.41 1.44 1.36 1.38 1.37 1.42 1.33 1.25 1.24 1.23 1.20 1.20 1.30 1.31 1.37 1.38 1.45 1.42 1.39 1.43 1.51 1.49 1.34 1.44 1.54 1.68 1.78 1.75 1.68 1.62 1.52 1.51
0.08 0.18 0.21 0.22 0.27 0.35 0.42 0.45 0.40 0.47 0.55 0.82 1.15 1.07 1.09 1.31 1.48 1.65 1.77 1.69 1.68 1.69 1.74 1.72 1.70 1.66 1.63 1.56 1.73 1.82 1.59 1.53 1.50 1.66 1.50 1.48 1.79 1.89 1.69 1.82 1.91 2.03 2.07 2.03 1.95 1.87 1.77 1.61 1.52
0.09 0.15 0.20 0.24 0.21 0.27 0.35 0.41 0.37 0.52 0.72 0.82 1.18 1.51 1.43 1.59 1.86 2.13 2.08 2.15 2.17 2.06 1.80 1.73 2.00 2.11 2.17 2.30 2.19 2.18 2.15 2.12 2.03 2.15 2.01 2.02 2.19 2.13 2.21 2.31 2.21 2.13 2.15 2.10 2.19 2.01 1.67 1.50 1.66
0.11 0.15 0.20 0.21 0.21 0.21 0.26 0.37 0.42 0.56 0.89 1.02 1.27 1.55 1.93 1.96 2.14 2.23 2.35 2.40 2.37 2.36 2.17 1.94 2.01 2.10 2.29 2.49 2.47 2.43 2.34 2.28 2.23 2.36 2.19 2.35 2.55 2.69 2.77 2.86 2.61 2.50 2.45 2.57 2.56 2.40 2.03 1.78 1.76
0.14 0.14 0.16 0.19 0.17 0.15 0.28 0.40 0.40 0.50 0.64 0.87 1.13 1.35 1.76 1.86 1.95 2.28 2.63 2.93 2.93 2.75 2.62 2.44 2.20 2.18 2.36 2.66 2.80 2.76 2.82 2.66 2.71 2.85 2.65 2.62 2.70 2.78 3.13 3.20 3.40 2.99 2.89 3.06 3.01 2.74 2.57 2.31 2.11
0.13 0.12 0.13 0.18 0.16 0.17 0.27 0.34 0.39 0.43 0.54 0.66 0.78 1.03 1.36 1.61 1.89 2.51 2.97 3.28 3.56 3.39 3.04 2.77 2.62 2.50 2.48 2.61 2.95 3.07 2.92 2.96 2.99 3.13 3.04 2.98 3.02 3.14 3.48 3.65 3.75 3.50 3.51 3.74 3.75 3.48 3.24 2.96 2.86
0.13 0.14 0.17 0.17 0.20 0.17 0.21 0.38 0.44 0.50 0.52 0.61 0.70 0.90 1.30 1.78 2.05 2.77 3.35 3.68 3.91 3.64 3.46 3.19 3.06 3.07 2.87 2.81 3.10 3.22 3.14 3.08 3.14 3.35 3.43 3.30 3.37 3.70 3.82 4.18 4.17 3.95 3.92 3.98 3.97 4.19 4.10 3.57 3.29
0.15 0.23 0.30 0.21 0.19 0.16 0.21 0.47 0.52 0.54 0.60 0.69 0.79 1.00 1.34 1.82 2.13 2.49 2.93 3.36 3.81 3.85 3.65 3.50 3.11 3.10 3.32 3.33 3.62 3.56 3.64 3.78 3.75 3.80 3.99 3.90 3.93 4.04 4.09 4.14 4.24 4.17 4.13 4.46 4.67 4.60 4.52 4.26 3.91
0.17 0.21 0.25 0.24 0.19 0.18 0.20 0.39 0.54 0.53 0.57 0.73 0.86 1.20 1.64 1.79 2.06 2.18 2.56 2.85 3.26 3.33 3.45 3.52 3.43 3.39 3.43 3.63 4.05 4.18 4.40 4.58 4.74 4.79 5.00 4.88 4.62 4.52 4.61 4.59 4.76 4.60 4.66 4.70 4.56 4.99 4.98 4.87 4.41
0.12 0.15 0.19 0.25 0.20 0.20 0.23 0.32 0.56 0.69 0.68 0.80 0.92 1.13 1.50 1.66 2.08 2.32 2.46 2.50 3.00 3.33 3.46 3.54 3.72 3.92 3.91 3.98 4.30 4.76 4.97 5.11 5.44 5.48 5.49 5.54 5.51 5.37 5.38 5.34 5.39 5.24 5.11 5.06 5.05 5.16 4.91 4.74 4.49
0.08 0.12 0.15 0.17 0.16 0.19 0.29 0.43 0.61 0.75 0.79 1.01 1.21 1.30 1.37 1.57 2.09 2.53 2.68 2.78 3.16 3.46 3.67 3.58 3.77 4.19 4.47 4.85 4.88 5.12 5.59 5.93 6.02 6.06 6.01 5.91 5.85 5.89 5.77 5.60 5.75 5.58 5.33 5.12 5.11 5.09 4.95 4.57 4.53
0.06 0.11 0.14 0.17 0.18 0.20 0.35 0.56 0.63 0.74 0.86 1.17 1.39 1.39 1.36 1.57 1.94 2.42 2.66 3.04 3.34 3.45 3.70 3.83 3.97 4.47 4.95 5.51 6.04 6.42 6.87 6.91 7.03 6.93 6.80 6.42 6.24 6.19 6.00 6.05 5.87 5.68 5.59 5.30 5.10 5.08 4.96 4.57 4.63
0.05 0.07 0.11 0.15 0.21 0.25 0.38 0.70 0.82 0.94 1.05 1.25 1.37 1.31 1.39 1.62 1.97 2.32 2.64 3.01 3.33 3.51 3.75 3.91 4.25 4.86 5.68 6.29 6.79 7.33 7.67 7.42 7.22 6.90 6.72 6.57 6.53 6.47 6.34 6.34 6.06 5.84 5.61 5.26 4.99 4.87 4.79 4.66 4.65
0.07 0.08 0.08 0.12 0.23 0.36 0.41 0.80 1.14 1.28 1.39 1.35 1.36 1.47 1.62 1.76 1.95 2.23 2.55 2.88 3.20 3.55 3.68 3.89 4.55 5.23 5.89 6.54 7.17 7.71 7.94 7.92 7.71 7.15 6.65 6.27 6.02 5.78 5.71 5.76 5.65 5.47 5.17 4.94 4.60 4.50 4.45 4.63 4.43
0.08 0.09 0.11 0.14 0.21 0.35 0.40 0.76 1.37 1.67 1.74 1.71 1.74 1.81 1.80 1.80 1.93 2.13 2.40 2.66 2.84 3.22 3.63 3.95 4.63 5.39 6.06 6.84 7.58 7.94 8.09 8.04 7.66 6.88 6.13 5.60 5.27 4.98 4.78 4.83 4.78 4.62 4.43 4.27 4.20 4.28 4.18 4.12 3.94
0.08 0.11 0.16 0.21 0.30 0.46 0.46 0.76 1.49 1.92 2.07 2.11 2.04 2.04 1.94 1.85 1.82 1.90 2.18 2.37 2.66 3.03 3.48 4.01 4.38 5.04 5.86 6.47 6.98 7.11 7.21 7.15 6.74 6.30 5.79 5.40 4.91 4.45 4.09 3.97 3.92 3.74 3.58 3.59 3.62 3.73 3.70 3.74 3.75
0.09 0.21 0.43 0.58 0.64 0.59 0.45 0.77 1.49 1.81 1.77 1.84 1.88 1.92 1.89 1.73 1.76 2.01 2.29 2.26 2.56 2.94 3.38 3.88 4.31 4.76 5.37 5.94 6.36 6.54 6.65 6.55 6.07 5.62 5.17 4.73 4.20 3.80 3.50 3.33 3.29 3.18 3.11 3.11 3.28 3.41 3.35 3.32 3.37
0.10 0.20 0.49 0.74 0.76 0.77 0.73 1.17 1.73 1.80 1.66 1.52 1.57 1.70 1.82 1.83 1.84 1.96 2.11 2.23 2.56 2.83 3.12 3.52 3.87 4.28 4.55 4.86 5.32 5.55 5.70 5.52 5.16 4.71 4.18 3.85 3.51 3.16 3.00 2.90 2.83 2.76 2.66 2.61 2.84 2.96 3.02 3.04 3.09
0.13 0.18 0.27 0.38 0.46 0.77 1.18 1.54 1.92 1.88 1.82 1.65 1.55 1.61 1.72 1.72 1.79 1.98 2.18 2.34 2.52 2.85 3.28 3.49 3.50 3.71 3.96 4.26 4.47 4.53 4.59 4.48 4.24 3.96 3.62 3.25 2.93 2.64 2.52 2.48 2.47 2.44 2.40 2.44 2.65 2.69 2.64 2.73 2.74
0.12 0.16 0.23 0.39 0.73 1.02 1.34 1.95 2.35 2.44 2.40 2.23 1.83 1.73 1.67 1.73 1.84 1.97 2.10 2.30 2.39 2.48 2.83 3.16 3.24 3.35 3.42 3.54 3.62 3.57 3.70 3.62 3.54 3.37 3.11 2.82 2.60 2.37 2.33 2.28 2.26 2.28 2.23 2.23 2.38 2.46 2.51 2.53 2.50
0.17 0.19 0.25 0.40 0.55 1.01 1.50 2.20 2.41 2.71 2.82 2.70 2.30 2.15 2.13 2.15 2.05 2.03 2.00 2.02 2.20 2.33 2.50 2.79 3.02 3.03 3.04 3.18 3.19 3.11 3.23 3.23 3.23 3.09 2.88 2.76 2.69 2.56 2.38 2.26 2.33 2.32 2.24 2.19 2.23 2.13 2.23 2.34 2.42
0.17 0.22 0.34 0.63 0.69 0.78 1.35 2.40 2.66 2.81 2.74 2.50 2.38 2.29 2.14 2.03 1.88 1.84 1.80 1.80 1.89 2.11 2.39 2.63 2.80 2.71 2.73 2.87 3.01 3.07 3.12 3.06 2.96 2.75 2.62 2.55 2.43 2.29 2.25 2.22 2.26 2.25 2.17 2.16 2.08 1.95 2.03 2.19 2.28